CW0858 Weather Reports


time (UTC)temp
C
wind
direction
speed
KPH
gust
KPH
rain 1hr
cm
rain 24hr
cm
rain mn
cm
humidity
%
barometer
mb
20260901181544 17 0 0.0 3.2 0.00 0.00 0.00 78 1011.9
20260901180034 17 0 0.0 4.8 0.00 0.00 0.00 80 1011.9
20260901174533 16 0 1.6 6.4 0.00 0.00 0.00 82 1012.0
20260901173043 16 0 0.0 1.6 0.00 0.00 0.00 86 1011.9
20260901171533 15 0 0.0 1.6 0.00 0.00 0.00 87 1011.9
20260901170035 15 0 0.0 0.0 0.00 0.00 0.00 88 1011.8
20260901164537 15 0 0.0 0.0 0.00 0.00 0.00 91 1011.8
20260901163034 15 0 0.0 0.0 0.00 0.00 0.00 91 1012.0
20260901161535 14 0 0.0 0.0 0.00 0.00 0.00 91 1012.0
20260901160038 14 0 0.0 0.0 0.00 0.00 0.00 91 1012.0
20260901154537 14 0 0.0 0.0 0.00 0.00 0.00 91 1012.0
20260901153038 14 0 0.0 0.0 0.00 0.00 0.00 90 1011.9
20260901151535 15 0 0.0 0.0 0.00 0.00 0.00 88 1011.8
20260901150037 15 0 0.0 0.0 0.00 0.00 0.00 86 1011.5
20260901144537 15 0 0.0 0.0 0.00 0.00 0.00 85 1011.4
20260901143041 15 0 0.0 0.0 0.00 0.00 0.00 85 1011.4
20260901141534 15 0 0.0 0.0 0.00 0.00 0.00 85 1011.3
20260901140035 14 0 0.0 0.0 0.00 0.00 0.00 85 1011.3
20260901134535 14 0 0.0 0.0 0.00 0.00 0.00 85 1011.2
20260901133042 14 0 0.0 0.0 0.00 0.00 0.00 85 1011.2
20260901131535 14 0 0.0 0.0 0.00 0.00 0.00 85 1011.1
20260901130034 14 0 0.0 0.0 0.00 0.00 0.00 85 1011.1
20260901124538 14 0 0.0 0.0 0.00 0.00 0.00 84 1010.9
20260901123031 14 0 0.0 0.0 0.00 0.00 0.00 85 1011.0
20260901121545 14 0 0.0 0.0 0.00 0.00 0.00 85 1011.0
20260901120031 14 0 0.0 1.6 0.00 0.00 0.00 86 1011.0
20260901114532 14 0 0.0 1.6 0.00 0.00 0.00 86 1011.0
20260901113033 13 0 0.0 0.0 0.00 0.00 0.00 86 1011.0
20260901111540 13 0 0.0 1.6 0.00 0.00 0.00 87 1010.9
20260901110042 13 0 0.0 1.6 0.00 0.00 0.00 87 1010.7
20260901104534 13 0 0.0 1.6 0.00 0.00 0.00 86 1010.6
20260901103033 13 0 0.0 0.0 0.00 0.00 0.00 85 1010.4
20260901101534 14 0 0.0 0.0 0.00 0.00 0.00 85 1010.4
20260901100036 14 0 0.0 1.6 0.00 0.00 0.00 84 1010.5
20260901094534 15 0 0.0 0.0 0.00 0.00 0.00 83 1010.3
20260901093038 15 0 0.0 0.0 0.00 0.00 0.00 82 1010.3
20260901091555 15 0 0.0 6.4 0.00 0.00 0.00 82 1010.1
20260901090034 15 0 0.0 1.6 0.00 0.00 0.00 81 1010.0
20260901084534 15 0 0.0 4.8 0.00 0.00 0.00 81 1009.9
20260901083036 15 0 0.0 4.8 0.00 0.00 0.00 82 1010.0
20260901081536 15 0 0.0 0.0 0.00 0.00 0.00 82 1010.1
20260901080033 15 0 0.0 0.0 0.00 0.00 0.00 81 1009.9
20260901074535 16 0 0.0 3.2 0.00 0.00 0.00 80 1009.9
20260901073034 16 0 0.0 4.8 0.00 0.00 0.00 79 1009.7
20260901071536 16 0 0.0 1.6 0.00 0.00 0.00 78 1009.6
20260901070037 17 0 0.0 1.6 0.00 0.00 0.00 77 1009.4
20260901064538 17 0 0.0 4.8 0.00 0.00 0.00 75 1009.3
20260901063037 17 0 0.0 6.4 0.00 0.00 0.00 73 1009.0
20260901061534 18 74 0.0 3.2 0.00 0.00 0.00 70 1008.8
20260901060035 19 0 0.0 3.2 0.00 0.00 0.00 67 1008.6
20260901054535 20 0 0.0 1.6 0.00 0.00 0.00 65 1008.3
20260901053037 20 0 0.0 0.0 0.00 0.00 0.00 67 1008.1
20260901051536 20 0 0.0 1.6 0.00 0.00 0.00 66 1008.0
20260901050035 20 0 0.0 0.0 0.00 0.00 0.00 67 1007.8
20260901044533 20 0 0.0 0.0 0.00 0.00 0.00 66 1007.8
20260901043038 20 0 0.0 0.0 0.00 0.00 0.00 64 1007.7
20260901041533 20 0 0.0 0.0 0.00 0.00 0.00 63 1007.4
20260901040044 20 0 0.0 0.0 0.00 0.00 0.00 63 1007.2
20260901034552 21 0 0.0 0.0 0.00 0.00 0.00 60 1007.2
20260901033050 22 0 0.0 0.0 0.00 0.00 0.00 57 1006.7
20260901031536 22 0 0.0 0.0 0.00 0.00 0.00 54 1006.3
20260901030032 23 0 0.0 0.0 0.00 0.00 0.00 52 1006.2
20260901024541 24 0 0.0 0.0 0.00 0.00 0.00 50 1006.3
20260901023037 25 0 0.0 0.0 0.00 0.00 0.00 47 1006.3
20260901021536 25 0 0.0 0.0 0.00 0.00 0.00 45 1006.3
20260901020035 26 0 0.0 0.0 0.00 0.00 0.00 44 1006.5
20260901014533 26 0 0.0 0.0 0.00 0.00 0.00 44 1006.4
20260901013033 26 0 0.0 1.6 0.00 0.00 0.00 42 1006.3
20260901011536 27 0 0.0 0.0 0.00 0.00 0.00 43 1006.4
20260901010040 27 0 0.0 4.8 0.00 0.00 0.00 41 1006.5
20260901004538 28 0 0.0 4.8 0.00 0.00 0.00 38 1006.4
20260901003033 28 0 0.0 0.0 0.00 0.00 0.00 34 1006.4
20260901001535 28 0 0.0 0.0 0.00 0.00 0.00 33 1006.5
20260901000036 28 293 0.0 1.6 0.00 0.00 0.00 35 1006.6
20260831234539 28 0 0.0 1.6 0.00 0.00 0.00 34 1006.7
20260831233035 27 0 0.0 1.6 0.00 0.00 0.00 35 1006.7
20260831231534 27 0 0.0 1.6 0.00 0.00 0.00 39 1006.8
20260831230036 27 0 0.0 1.6 0.00 0.00 0.00 38 1006.9
20260831224534 27 0 0.0 1.6 0.00 0.00 0.00 38 1007.1
20260831223037 27 0 0.0 3.2 0.00 0.00 0.00 40 1007.2
20260831221536 27 0 0.0 1.6 0.00 0.00 0.00 40 1007.2
20260831220035 27 0 0.0 1.6 0.00 0.00 0.00 40 1007.3
20260831214542 27 0 0.0 1.6 0.00 0.00 0.00 40 1007.4
20260831213040 27 0 0.0 3.2 0.00 0.00 0.00 37 1007.6
20260831211531 27 0 0.0 3.2 0.00 0.00 0.00 37 1007.8
20260831210038 27 0 0.0 1.6 0.00 0.00 0.00 38 1007.9
20260831204547 27 0 0.0 3.2 0.00 0.00 0.00 40 1008.2
20260831203053 26 105 0.0 3.2 0.00 0.00 0.00 40 1008.4
20260831201532 26 0 0.0 1.6 0.00 0.00 0.00 44 1008.6
20260831200040 25 0 0.0 3.2 0.00 0.00 0.00 44 1008.8
20260831194536 25 0 0.0 3.2 0.00 0.00 0.00 45 1008.9
20260831193036 24 356 0.0 4.8 0.00 0.00 0.00 46 1009.0
20260831191533 23 0 0.0 4.8 0.00 0.00 0.00 49 1009.3
20260831190051 23 0 0.0 4.8 0.00 0.00 0.00 48 1009.7
20260831184534 23 0 0.0 6.4 0.00 0.00 0.00 51 1009.8
20260831183037 22 0 0.0 3.2 0.00 0.00 0.00 53 1009.8